Theta_e
295 297 300 315 318 319 320 312 305 302 299 297 295 292 291 290 288 288 287 287 286 285 285 285 284 284 284 282 282 282 281 281
295 297 304 312 314 307 303 300 298 297 296 292 291 290 289 288 287 286 286 286 285 285 284 284 283 283 282 282 281 280 280 279
295 301 302 301 300 299 298 297 294 294 292 290 289 288 287 285 285 286 285 285 285 284 283 283 282 282 281 280 280 279 278 278
293 295 295 296 295 294 293 292 291 290 288 287 286 285 285 285 285 285 284 284 283 283 282 281 281 280 280 279 278 278 277 277
289 290 289 290 290 288 288 289 288 287 287 286 286 286 285 285 284 284 283 282 282 282 281 281 280 280 279 279 278 277 277 278
286 286 286 286 286 285 285 285 286 285 285 285 285 285 284 283 282 282 281 281 281 280 279 279 279 279 279 279 278 277 277 277
285 285 285 286 285 285 285 285 286 285 284 284 284 283 282 281 280 280 280 280 279 279 278 279 280 283 281 279 277 277 277 276
284 285 285 285 285 285 285 285 285 285 284 283 282 280 280 281 280 280 279 280 279 279 279 279 280 283 282 281 278 277 277 276
284 284 285 285 285 286 286 285 283 282 281 281 280 280 280 280 279 279 279 279 279 279 280 280 281 283 282 281 278 277 277 276
284 285 285 285 285 284 284 283 282 281 280 280 280 279 279 278 278 278 278 277 277 278 277 278 279 281 281 279 278 277 276 277
284 284 284 284 284 283 281 280 279 279 279 279 279 279 278 277 277 277 277 277 277 277 277 277 277 281 280 278 278 275 276 276
283 282 282 283 282 280 279 278 279 279 279 278 278 278 278 277 277 277 276 276 276 275 275 275 276 277 280 279 277 276 275 275
281 281 281 281 280 278 277 278 278 278 277 277 277 278 277 276 276 276 276 275 274 273 273 274 275 277 279 280 279 278 275 274
281 280 280 280 280 277 277 278 277 277 276 276 277 277 277 276 276 275 275 274 273 272 271 272 273 274 278 278 278 277 273 274
280 279 278 279 279 278 279 278 278 277 276 276 276 276 276 276 276 274 272 272 272 272 271 270 271 271 272 272 270 273 271 270
280 278 277 278 278 279 279 279 277 276 276 275 274 274 273 273 273 274 273 273 270 267 269 266 265 272 276 272 270 266 270 260
278 277 277 278 278 278 278 278 277 275 274 274 272 272 273 273 275 280 279 279 278 276 273 270 275 276 275 275 275 274 273 256
277 277 278 278 278 278 279 278 277 275 272 271 271 271 270 271 272 272 276 278 277 277 276 275 274 274 273 273 272 271 265 251
278 278 278 278 278 279 279 277 275 272 270 270 269 269 268 268 267 269 267 262 262 271 271 273 272 272 272 271 264 253 254 249
276 276 276 275 273 277 278 277 274 269 267 267 266 266 267 267 266 264 262 259 257 256 263 262 270 270 269 268 252 250 249 249
Wind_Speed
14 15 12 16 19 18 18 20 15 18 16 15 15 16 17 15 16 15 14 14 13 12 10 11 10 10 8 6 6 8 5 4
17 16 18 9 11 14 15 19 17 15 16 18 17 17 18 16 15 16 15 15 12 12 12 11 9 7 7 8 7 9 8 6
14 11 5 10 14 16 15 16 16 16 18 17 21 18 18 16 16 12 14 12 13 12 11 9 7 6 8 8 7 8 8 6
7 5 9 10 13 15 14 15 14 18 19 18 19 20 20 18 15 14 14 13 12 11 10 8 9 9 8 8 7 7 7 6
7 8 10 12 14 16 16 14 14 16 16 21 18 19 17 17 15 14 13 12 10 9 9 9 9 8 8 8 8 7 6 5
7 8 10 15 16 17 16 16 15 18 17 17 17 19 19 16 14 13 12 10 11 11 10 9 8 6 7 7 7 6 5 4
11 13 12 15 16 17 17 16 16 19 22 17 15 19 17 15 12 12 13 11 11 10 9 8 6 14 13 8 5 5 5 4
9 12 12 14 19 18 19 16 19 19 19 17 15 17 17 13 12 13 13 11 11 10 9 9 8 14 12 10 5 5 4 4
11 13 14 15 18 18 19 17 17 18 16 16 15 15 14 13 12 12 10 11 9 8 8 8 7 11 11 10 5 5 4 4
12 14 15 15 16 21 18 17 18 15 14 14 12 15 14 13 11 10 10 9 8 8 8 7 6 10 9 6 4 4 4 2
14 16 15 13 16 18 15 16 15 14 12 11 12 13 14 13 11 8 9 10 8 8 7 7 6 10 9 6 3 4 3 3
15 15 13 11 15 16 15 14 12 12 12 12 11 12 12 12 8 9 9 9 8 9 7 8 5 6 10 10 5 3 2 3
12 12 10 10 13 14 14 10 10 11 13 12 10 9 9 11 8 8 9 9 8 8 6 4 4 7 9 10 9 7 3 4
11 12 10 9 10 14 9 10 12 13 12 11 11 10 8 8 8 7 6 6 6 6 6 3 2 4 12 12 10 13 7 5
11 11 9 8 9 11 9 9 11 13 12 9 10 9 7 6 5 5 4 5 6 6 5 3 2 3 3 4 4 8 5 5
8 9 9 8 9 9 8 10 11 11 9 9 7 8 8 7 5 5 4 5 5 3 4 4 3 2 6 3 1 2 2 3
8 10 8 8 9 8 7 9 11 9 7 6 6 6 7 8 8 17 15 16 15 13 7 2 7 7 6 7 9 10 10 5
8 9 9 9 8 6 5 6 7 9 7 6 7 6 6 6 8 9 9 14 13 12 11 9 6 7 7 7 10 10 8 3
8 9 8 9 7 5 6 7 7 6 6 5 5 5 4 5 4 6 6 3 2 7 7 6 5 5 5 8 7 5 5 1
9 8 8 7 5 4 6 7 8 5 4 4 4 3 5 4 4 4 4 3 2 2 3 6 5 5 7 6 3 2 3 3
Wind_Direction
301 298 285 225 194 190 176 148 142 139 135 130 128 122 121 122 124 122 116 115 113 101 96 98 94 104 111 110 100 101 90 94
305 294 276 197 168 128 131 131 130 128 128 124 122 124 120 118 121 120 119 121 109 104 109 108 115 121 111 100 107 104 102 89
297 288 117 126 122 124 124 127 127 126 122 121 116 116 114 113 113 109 113 101 103 107 111 117 119 117 109 118 111 110 109 98
333 352 92 99 104 105 106 111 116 118 119 115 114 115 115 107 106 111 107 102 109 114 114 118 116 113 110 107 105 99 91 88
47 53 77 88 95 93 95 97 107 106 110 115 117 114 107 114 108 107 107 111 106 103 106 108 107 105 100 106 100 91 88 96
69 71 85 93 92 91 90 93 103 100 103 97 102 105 100 103 105 109 112 112 108 108 103 100 97 101 108 104 105 109 110 109
87 88 87 97 95 100 96 102 107 105 98 94 103 100 103 103 115 116 104 103 108 103 98 98 104 110 111 104 106 105 108 102
79 94 94 98 102 100 101 101 97 101 100 103 102 100 102 113 115 106 106 105 99 101 107 100 99 108 109 110 98 92 91 83
76 89 92 96 99 105 97 95 93 90 94 97 104 109 108 107 102 101 103 103 107 108 105 105 112 112 100 89 89 88 90 95
66 79 85 91 97 92 92 93 92 92 95 104 117 110 110 106 105 108 106 106 107 105 97 92 85 92 84 76 81 93 84 89
66 72 70 70 82 87 89 90 90 100 111 115 111 108 108 112 116 108 106 101 99 97 94 87 76 85 81 75 67 69 49 20
63 65 63 72 87 88 93 95 114 112 106 100 98 103 107 101 105 105 104 102 101 95 79 76 64 73 73 69 65 69 51 39
73 67 60 72 90 91 88 97 98 100 88 87 91 94 96 103 102 102 109 109 101 97 83 70 62 82 74 65 54 38 51 56
82 80 69 61 87 97 99 103 97 92 90 94 93 90 92 112 102 98 103 115 114 105 103 104 67 47 56 41 39 55 51 31
89 87 81 69 76 87 93 102 105 101 99 92 94 93 85 80 80 108 100 99 104 117 120 107 73 49 48 67 54 43 44 30
91 96 89 88 85 86 98 109 100 100 103 99 89 87 88 80 85 84 79 116 116 115 121 114 76 31 84 91 135 191 9 59
74 87 84 87 84 78 87 108 115 105 103 106 107 97 100 105 97 87 96 102 103 108 105 44 82 63 56 22 11 7 11 46
93 97 99 97 85 79 79 94 95 108 116 110 104 114 124 122 117 117 98 94 90 87 84 85 75 60 41 20 23 21 46 68
90 93 98 95 91 101 89 96 102 104 100 115 117 119 119 129 121 116 131 117 23 74 76 66 57 47 29 26 35 9 7 95
97 95 99 92 62 67 114 118 120 105 99 109 106 112 126 118 103 101 109 123 135 0 33 2 29 38 25 32 117 222 292 283